FW7071 Weather Reports


Display with metric or nautical units.
time (UTC)temp
F
wind
direction
speed
MPH
gust
MPH
rain 1hr
in
rain 24hr
in
rain mn
in
humidity
%
barometer
mb
20260510081328 51 229 0.0 0.0 0.00 0.01 0.01 99 1013.3
20260510080824 51 258 0.0 0.0 0.00 0.01 0.01 99 1013.5
20260510080319 51 152 0.0 0.0 0.00 0.01 0.01 99 1013.1
20260510075817 51 264 0.0 1.0 0.00 0.01 0.01 99 1013.1
20260510075314 51 196 0.0 0.0 0.00 0.01 0.01 99 1013.2
20260510074811 51 162 0.0 0.0 0.00 0.01 0.01 99 1012.7
20260510074308 51 254 0.0 1.0 0.00 0.01 0.01 99 1013.5
20260510073803 51 166 1.0 1.0 0.00 0.01 0.01 99 1012.8
20260510073300 51 287 3.0 3.0 0.00 0.01 0.01 99 1012.7
20260510072755 51 129 0.0 0.0 0.00 0.01 0.01 99 1012.5
20260510072252 51 137 0.0 0.0 0.00 0.01 0.01 99 1012.4
20260510071748 51 140 0.0 0.0 0.00 0.01 0.01 99 1012.4
20260510071245 51 143 0.0 0.0 0.00 0.01 0.01 99 1012.6
20260510070744 50 139 0.0 0.0 0.00 0.01 0.01 99 1012.2
20260510070241 50 147 0.0 0.0 0.00 0.01 0.01 99 1012.6
20260510065735 50 169 0.0 0.0 0.00 0.01 0.01 99 1012.5
20260510065232 50 169 0.0 0.0 0.00 0.01 0.01 99 1012.4
20260510064728 50 154 0.0 0.0 0.00 0.01 0.01 99 1012.5
20260510064226 50 172 0.0 0.0 0.00 0.01 0.01 99 1012.8
20260510063722 50 171 0.0 0.0 0.05 0.01 0.01 99 1012.7
20260510063219 50 155 0.0 0.0 0.05 0.01 0.01 99 1012.7
20260510062715 50 272 0.0 0.0 0.00 0.00 0.00 99 1012.7
20260510062212 50 281 0.0 1.0 0.00 0.00 0.00 99 1012.7
20260510061707 50 173 0.0 0.0 0.00 0.00 0.00 99 1012.4
20260510061204 50 122 0.0 0.0 0.00 0.00 0.00 99 1012.6
20260510060701 49 84 0.0 0.0 0.00 0.00 0.00 99 1012.4
20260510060157 49 82 0.0 0.0 0.00 0.00 0.00 99 1012.3
20260510055653 49 77 0.0 1.0 0.00 0.00 0.00 99 1012.4
20260510055152 50 74 0.0 0.0 0.00 0.00 0.00 99 1012.1
20260510054647 50 78 0.0 0.0 0.00 0.00 0.00 99 1012.2
20260510054143 50 82 0.0 0.0 0.00 0.00 0.00 99 1012.5
20260510053642 50 81 0.0 0.0 0.00 0.00 0.00 99 1012.4
20260510053139 50 77 0.0 0.0 0.00 0.00 0.00 99 1012.5
20260510052635 50 82 0.0 0.0 0.00 0.00 0.00 99 1012.5
20260510052131 50 80 0.0 0.0 0.00 0.00 0.00 99 1012.4
20260510051627 50 81 0.0 0.0 0.00 0.00 0.00 99 1012.5
20260510051124 50 82 0.0 1.0 0.00 0.00 0.00 99 1012.4
20260510050621 50 76 0.0 0.0 0.00 0.00 0.00 99 1012.5
20260510050118 51 60 0.0 1.0 0.00 0.00 0.00 99 1012.7
20260510045615 50 73 0.0 0.0 0.00 0.00 0.00 99 1012.6
20260510045111 50 86 0.0 0.0 0.00 0.00 0.00 99 1012.6
20260510044608 50 82 0.0 0.0 0.00 0.00 0.00 99 1012.7
20260510044105 50 86 0.0 0.0 0.00 0.00 0.00 99 1012.7
20260510043600 50 86 0.0 0.0 0.00 0.00 0.00 99 1012.6
20260510043057 49 86 0.0 0.0 0.00 0.00 0.00 99 1012.6
20260510042555 49 86 0.0 0.0 0.00 0.00 0.00 99 1012.6
20260510042051 49 87 0.0 0.0 0.00 0.00 0.00 99 1012.7
20260510041548 49 86 0.0 0.0 0.00 0.00 0.00 99 1012.6
20260510041045 49 86 0.0 0.0 0.00 0.00 0.00 99 1012.9
20260510040542 49 86 0.0 0.0 0.00 0.00 0.00 99 1012.8
20260510040038 50 86 0.0 0.0 0.00 0.25 0.25 99 1012.6
20260510035534 50 86 0.0 0.0 0.00 0.25 0.25 99 1012.7
20260510035034 50 86 0.0 0.0 0.00 0.25 0.25 99 1012.8
20260510034533 50 86 0.0 0.0 0.00 0.25 0.25 99 1012.6
20260510034029 50 86 0.0 0.0 0.00 0.25 0.25 99 1012.7
20260510033525 51 86 0.0 0.0 0.00 0.25 0.25 99 1012.7
20260510033023 50 87 0.0 0.0 0.00 0.25 0.25 99 1012.6
20260510032519 50 86 0.0 0.0 0.00 0.25 0.25 99 1012.7
20260510032015 51 86 0.0 0.0 0.00 0.25 0.25 99 1012.7
20260510031510 51 86 0.0 0.0 0.00 0.25 0.25 99 1012.5
20260510031006 51 86 0.0 0.0 0.00 0.25 0.25 99 1012.4
20260510030502 50 86 0.0 0.0 0.00 0.25 0.25 99 1012.4
20260510025959 51 86 0.0 0.0 0.00 0.25 0.25 99 1012.6
20260510025456 51 86 0.0 0.0 0.00 0.25 0.25 99 1012.5
20260510024954 51 86 0.0 0.0 0.00 0.25 0.25 99 1012.5
20260510024450 51 39 0.0 0.0 0.00 0.25 0.25 99 1012.3
20260510023946 51 77 0.0 0.0 0.00 0.25 0.25 99 1012.4
20260510023442 52 104 0.0 0.0 0.00 0.25 0.25 99 1012.3
20260510022939 52 102 0.0 0.0 0.00 0.25 0.25 99 1012.4
20260510022438 52 94 0.0 0.0 0.00 0.25 0.25 99 1012.3
20260510021938 52 124 0.0 0.0 0.00 0.25 0.25 99 1012.2
20260510021436 52 124 0.0 0.0 0.00 0.25 0.25 99 1012.3
20260510020933 51 123 0.0 0.0 0.00 0.25 0.25 99 1012.1
20260510020433 52 124 0.0 0.0 0.00 0.25 0.25 99 1012.3
20260510015929 52 123 0.0 0.0 0.00 0.25 0.25 99 1012.5
20260510015425 52 123 0.0 0.0 0.00 0.25 0.25 99 1012.4
20260510014920 53 124 0.0 0.0 0.00 0.25 0.25 99 1012.1
20260510014418 53 152 0.0 0.0 0.00 0.25 0.25 99 1012.1
20260510013914 53 150 0.0 0.0 0.00 0.25 0.25 99 1012.0
20260510013409 53 150 0.0 0.0 0.00 0.25 0.25 99 1012.2
20260510012904 53 150 0.0 0.0 0.00 0.25 0.25 99 1012.2
20260510012400 54 164 0.0 1.0 0.00 0.25 0.25 99 1012.0
20260510011854 54 168 0.0 0.0 0.00 0.25 0.25 99 1011.7
20260510011350 54 142 0.0 0.0 0.00 0.25 0.25 99 1012.1
20260510010846 54 183 0.0 1.0 0.00 0.25 0.25 99 1012.0
20260510010344 54 137 0.0 0.0 0.00 0.25 0.25 99 1011.7
20260510005840 54 118 0.0 0.0 0.00 0.25 0.25 99 1011.9
20260510005337 55 170 0.0 0.0 0.00 0.25 0.25 99 1011.8
20260510004834 55 170 0.0 0.0 0.00 0.25 0.25 99 1011.7
20260510004332 55 206 0.0 1.0 0.00 0.25 0.25 99 1011.7
20260510003829 55 201 0.0 1.0 0.00 0.25 0.25 99 1011.5
20260510003326 55 152 0.0 0.0 0.00 0.25 0.25 99 1011.7
20260510002825 55 108 1.0 1.0 0.00 0.25 0.25 99 1011.7
20260510002322 55 162 0.0 0.0 0.00 0.25 0.25 99 1011.4
20260510001818 55 142 0.0 0.0 0.00 0.25 0.25 99 1011.6
20260510001317 55 155 0.0 0.0 0.00 0.25 0.25 99 1011.5
20260510000812 56 159 0.0 0.0 0.00 0.25 0.25 99 1011.4
20260510000311 56 109 1.0 2.0 0.00 0.25 0.25 99 1011.4
20260509235807 56 73 0.0 1.0 0.00 0.25 0.25 98 1011.2
20260509235306 56 162 0.0 0.0 0.00 0.25 0.25 98 1011.5
20260509234759 57 169 0.0 0.0 0.00 0.25 0.25 97 1011.5
20260509234256 57 159 0.0 0.0 0.00 0.25 0.25 97 1011.4
20260509233755 58 149 0.0 1.0 0.00 0.25 0.25 96 1011.3
20260509233252 58 144 1.0 1.0 0.00 0.25 0.25 96 1011.6
20260509232748 58 226 1.0 1.0 0.00 0.25 0.25 96 1011.3
20260509232245 58 217 1.0 1.0 0.00 0.25 0.25 96 1011.5
20260509231741 58 171 0.0 0.0 0.00 0.25 0.25 97 1011.5
20260509231238 58 163 0.0 0.0 0.00 0.25 0.25 96 1011.6
20260509230736 59 151 0.0 0.0 0.00 0.25 0.25 96 1011.6
20260509230233 59 189 1.0 1.0 0.00 0.25 0.25 95 1011.4
20260509225728 59 90 1.0 1.0 0.00 0.25 0.25 94 1011.4
20260509225224 59 180 1.0 1.0 0.00 0.25 0.25 93 1011.2
20260509224720 59 61 0.0 1.0 0.00 0.25 0.25 93 1011.5
20260509224217 59 216 0.0 0.0 0.00 0.25 0.25 94 1011.2
20260509223714 59 206 0.0 1.0 0.00 0.25 0.25 94 1011.2
20260509223211 59 182 1.0 1.0 0.00 0.25 0.25 95 1011.3
20260509222708 60 70 1.0 2.0 0.00 0.25 0.25 94 1011.5
20260509222203 59 208 0.0 0.0 0.00 0.25 0.25 95 1011.4
20260509221659 60 234 0.0 0.0 0.00 0.25 0.25 97 1011.5
20260509221155 58 174 0.0 0.0 0.00 0.25 0.25 98 1011.4
20260509220652 58 124 1.0 1.0 0.00 0.25 0.25 98 1011.4
20260509220148 58 215 0.0 0.0 0.00 0.25 0.25 99 1011.4
20260509215644 58 87 0.0 0.0 0.00 0.25 0.25 99 1011.4
20260509215141 58 202 0.0 0.0 0.00 0.25 0.25 99 1011.3
20260509214638 58 171 0.0 0.0 0.00 0.25 0.25 99 1011.2
20260509214134 57 105 0.0 0.0 0.00 0.25 0.25 99 1011.1
20260509213631 57 170 0.0 0.0 0.00 0.25 0.25 99 1011.4
20260509213127 57 88 1.0 1.0 0.00 0.25 0.25 99 1011.4
20260509212625 57 108 0.0 0.0 0.00 0.25 0.25 99 1011.3
20260509212122 57 156 0.0 0.0 0.00 0.25 0.25 99 1011.5
20260509211617 57 151 0.0 0.0 0.00 0.25 0.25 99 1011.2
20260509211114 57 150 0.0 1.0 0.00 0.25 0.25 99 1011.5
20260509210611 57 225 0.0 0.0 0.00 0.25 0.25 99 1011.5
20260509210108 57 280 1.0 1.0 0.00 0.25 0.25 99 1011.7
20260509205602 57 50 0.0 0.0 0.00 0.25 0.25 99 1011.5
20260509205057 57 302 2.0 2.0 0.00 0.25 0.25 99 1011.8
20260509204554 57 203 1.0 1.0 0.00 0.25 0.25 99 1011.8
20260509204050 58 218 0.0 0.0 0.00 0.25 0.25 99 1011.6
20260509203546 57 212 0.0 0.0 0.00 0.25 0.25 99 1011.6
20260509203045 57 176 0.0 1.0 0.00 0.25 0.25 99 1011.8
20260509202539 56 70 1.0 1.0 0.00 0.25 0.25 99 1011.8
20260509202034 56 282 0.0 1.0 0.00 0.25 0.25 99 1011.8
20260509201529 56 249 0.0 1.0 0.00 0.25 0.25 99 1011.7
20260509201022 55 49 2.0 2.0 0.00 0.25 0.25 99 1011.5
20260509200521 56 72 0.0 1.0 0.00 0.25 0.25 99 1011.7
20260509200019 55 66 1.0 1.0 0.00 0.25 0.25 99 1011.9
20260509195514 55 75 0.0 1.0 0.00 0.25 0.25 99 1011.8
20260509195013 55 76 0.0 0.0 0.07 0.25 0.25 99 1012.2
20260509194509 55 66 0.0 0.0 0.07 0.25 0.25 99 1012.1
20260509194007 55 140 0.0 0.0 0.00 0.24 0.24 99 1012.0
20260509193507 55 87 0.0 0.0 0.00 0.24 0.24 99 1012.1
20260509193004 55 175 0.0 0.0 0.00 0.24 0.24 99 1012.1
20260509192500 55 119 1.0 1.0 0.00 0.24 0.24 99 1012.4
20260509191954 56 179 0.0 0.0 0.00 0.24 0.24 99 1012.2
20260509191450 55 198 0.0 0.0 0.05 0.24 0.24 99 1012.3
20260509190946 55 237 0.0 1.0 0.12 0.24 0.24 99 1012.5
20260509190443 55 185 0.0 0.0 0.19 0.23 0.23 99 1012.8
20260509185941 55 186 0.0 0.0 0.19 0.22 0.22 99 1012.9
20260509185438 54 180 0.0 0.0 0.19 0.20 0.20 99 1012.8
20260509184935 54 231 0.0 0.0 0.17 0.19 0.19 99 1013.0
20260509184433 54 298 2.0 2.0 0.24 0.17 0.17 99 1013.1
20260509183929 55 320 1.0 1.0 0.24 0.16 0.16 99 1013.2
20260509183423 55 241 0.0 0.0 0.12 0.13 0.13 99 1013.2
20260509182920 55 276 1.0 1.0 0.05 0.11 0.11 99 1013.2
20260509182416 55 231 0.0 0.0 0.05 0.11 0.11 99 1013.2
20260509181914 55 205 0.0 0.0 0.07 0.10 0.10 99 1013.0
20260509181412 55 237 0.0 0.0 0.07 0.10 0.10 99 1013.0
20260509180908 55 292 1.0 1.0 0.00 0.09 0.09 99 1013.3
20260509180404 55 210 0.0 0.0 0.00 0.09 0.09 99 1013.2
20260509175901 55 288 1.0 1.0 0.07 0.09 0.09 99 1013.3
20260509175357 55 282 0.0 0.0 0.12 0.09 0.09 99 1013.3
20260509174854 55 269 2.0 2.0 0.12 0.08 0.08 99 1013.3
20260509174350 55 290 3.0 3.0 0.12 0.07 0.07 98 1013.2
20260509173846 55 236 3.0 3.0 0.05 0.06 0.06 98 1013.4
20260509173341 56 215 1.0 1.0 0.07 0.05 0.05 98 1013.1
20260509172837 56 284 0.0 1.0 0.07 0.05 0.05 98 1013.4
20260509172334 56 221 2.0 2.0 0.00 0.04 0.04 98 1013.2
20260509171830 56 229 1.0 2.0 0.00 0.04 0.04 98 1013.1
20260509171326 57 219 1.0 1.0 0.00 0.04 0.04 98 1012.9
20260509170823 57 258 1.0 1.0 0.00 0.04 0.04 98 1013.2
20260509170318 57 259 1.0 2.0 0.00 0.04 0.04 97 1012.9
20260509165818 57 186 0.0 0.0 0.05 0.04 0.04 97 1012.9
20260509165313 57 186 0.0 0.0 0.05 0.04 0.04 97 1012.6
20260509164809 56 191 0.0 0.0 0.00 0.03 0.03 96 1013.0
20260509164306 56 306 0.0 1.0 0.00 0.03 0.03 95 1012.8
20260509163802 57 201 1.0 1.0 0.00 0.03 0.03 95 1013.1
20260509163258 57 201 0.0 0.0 0.00 0.03 0.03 95 1013.1
20260509162758 57 222 2.0 2.0 0.00 0.03 0.03 94 1013.2
20260509162251 57 215 2.0 2.0 0.07 0.03 0.03 93 1013.1
20260509161747 57 274 1.0 2.0 0.05 0.02 0.02 93 1013.0
20260509161243 58 324 3.0 3.0 0.12 0.02 0.02 91 1013.2
20260509160739 58 298 3.0 3.0 0.07 0.01 0.01 90 1013.3
20260509160235 59 217 2.0 3.0 0.00 0.00 0.00 90 1013.4
20260509155730 59 291 3.0 3.0 0.00 0.00 0.00 89 1013.6
20260509155227 59 330 4.0 6.0 0.00 0.00 0.00 89 1013.7
20260509154723 59 271 2.0 2.0 0.00 0.00 0.00 89 1013.7
20260509154220 59 251 6.0 7.0 0.00 0.00 0.00 89 1013.6
20260509153718 59 232 2.0 2.0 0.00 0.00 0.00 89 1013.6
20260509153214 59 233 2.0 2.0 0.00 0.00 0.00 89 1013.8
20260509152710 59 231 1.0 2.0 0.00 0.00 0.00 89 1013.6
20260509152207 59 255 4.0 5.0 0.00 0.00 0.00 88 1013.8
20260509151704 59 99 0.0 1.0 0.00 0.00 0.00 87 1013.6
20260509151201 59 249 2.0 2.0 0.00 0.00 0.00 87 1013.7
20260509150659 59 293 4.0 5.0 0.00 0.00 0.00 87 1013.7
20260509150157 59 253 2.0 6.0 0.00 0.00 0.00 87 1013.7
20260509145652 59 259 0.0 0.0 0.00 0.00 0.00 87 1013.6
20260509145148 59 214 1.0 1.0 0.00 0.00 0.00 87 1013.5
20260509144644 59 229 1.0 3.0 0.00 0.00 0.00 88 1013.5
20260509144142 59 252 4.0 5.0 0.00 0.00 0.00 87 1013.3
20260509143639 59 222 1.0 1.0 0.00 0.00 0.00 87 1013.5
20260509143137 58 225 2.0 2.0 0.00 0.00 0.00 87 1013.5
20260509142632 59 196 1.0 2.0 0.00 0.00 0.00 87 1013.5
20260509142129 58 221 0.0 1.0 0.00 0.00 0.00 87 1013.6
20260509141624 58 207 3.0 3.0 0.00 0.00 0.00 86 1013.5
20260509141121 58 177 0.0 0.0 0.00 0.00 0.00 86 1013.2
20260509140618 58 244 4.0 5.0 0.00 0.00 0.00 86 1013.3
20260509140116 58 33 0.0 1.0 0.00 0.00 0.00 85 1013.2
20260509135613 59 230 3.0 5.0 0.00 0.00 0.00 85 1013.2
20260509135111 58 112 1.0 1.0 0.00 0.00 0.00 85 1013.0
20260509134607 58 223 3.0 3.0 0.00 0.00 0.00 84 1013.0
20260509134105 58 75 2.0 2.0 0.00 0.00 0.00 84 1013.1
20260509133601 58 221 0.0 1.0 0.00 0.00 0.00 85 1013.1
20260509133059 57 284 1.0 2.0 0.00 0.00 0.00 85 1013.3
20260509132557 57 195 0.0 1.0 0.00 0.00 0.00 85 1013.1
20260509132055 57 227 2.0 2.0 0.00 0.00 0.00 84 1013.4
20260509131551 57 223 0.0 0.0 0.00 0.00 0.00 85 1013.0
20260509131048 57 245 1.0 1.0 0.00 0.00 0.00 85 1013.0
20260509130544 57 137 0.0 0.0 0.00 0.00 0.00 85 1013.1
20260509130041 57 284 0.0 1.0 0.00 0.00 0.00 85 1013.1
20260509125537 56 285 1.0 2.0 0.00 0.00 0.00 86 1013.3
20260509125034 56 141 0.0 1.0 0.00 0.00 0.00 86 1013.3
20260509124530 55 118 1.0 1.0 0.00 0.00 0.00 87 1013.0
20260509124027 55 118 1.0 1.0 0.00 0.00 0.00 88 1013.4
20260509123525 55 127 0.0 0.0 0.00 0.00 0.00 88 1013.2
20260509123016 55 104 1.0 1.0 0.00 0.00 0.00 88 1013.2
20260509122512 55 127 0.0 0.0 0.00 0.00 0.00 87 1013.2
20260509122009 55 102 0.0 1.0 0.00 0.00 0.00 88 1013.2
20260509121506 55 126 0.0 0.0 0.00 0.00 0.00 88 1013.2
20260509121004 55 116 0.0 0.0 0.00 0.00 0.00 88 1013.1
20260509120502 55 136 0.0 0.0 0.00 0.00 0.00 88 1013.1
20260509115959 54 150 0.0 0.0 0.00 0.00 0.00 88 1013.2
20260509115456 54 131 0.0 0.0 0.00 0.00 0.00 88 1013.4
20260509114954 54 129 0.0 0.0 0.00 0.00 0.00 88 1013.1
20260509114452 54 127 0.0 0.0 0.00 0.00 0.00 88 1013.3
20260509113951 54 90 0.0 0.0 0.00 0.00 0.00 87 1013.2
20260509113448 54 138 0.0 0.0 0.00 0.00 0.00 87 1013.3
20260509112945 54 140 0.0 0.0 0.00 0.00 0.00 87 1013.0
20260509112442 54 61 0.0 0.0 0.00 0.00 0.00 87 1013.1
20260509111938 54 168 0.0 0.0 0.00 0.00 0.00 86 1013.0
20260509111436 54 217 0.0 0.0 0.00 0.00 0.00 85 1013.2
20260509110933 54 270 0.0 0.0 0.00 0.00 0.00 85 1013.1
20260509110429 54 178 0.0 0.0 0.00 0.00 0.00 85 1013.0
20260509105927 54 134 0.0 0.0 0.00 0.00 0.00 85 1012.9
20260509105426 54 197 0.0 1.0 0.00 0.00 0.00 84 1013.0
20260509104922 54 248 0.0 0.0 0.00 0.00 0.00 84 1013.1
20260509104419 54 130 0.0 1.0 0.00 0.00 0.00 84 1013.0
20260509103917 54 143 0.0 0.0 0.00 0.00 0.00 84 1013.0
20260509103413 54 128 0.0 1.0 0.00 0.00 0.00 84 1013.0
20260509102912 53 135 0.0 0.0 0.00 0.00 0.00 84 1012.8
20260509102409 53 137 0.0 0.0 0.00 0.00 0.00 86 1012.9
20260509101905 53 137 0.0 0.0 0.00 0.00 0.00 85 1012.8
20260509101401 53 136 0.0 0.0 0.00 0.00 0.00 85 1012.6
20260509100859 53 139 0.0 0.0 0.00 0.00 0.00 85 1012.8
20260509100356 53 136 0.0 0.0 0.00 0.00 0.00 85 1012.7
20260509095853 53 145 0.0 0.0 0.00 0.00 0.00 85 1012.9
20260509095351 53 144 0.0 0.0 0.00 0.00 0.00 85 1012.8
20260509094847 53 144 0.0 0.0 0.00 0.00 0.00 85 1012.9
20260509094344 54 144 0.0 1.0 0.00 0.00 0.00 84 1013.3
20260509093842 54 142 0.0 0.0 0.00 0.00 0.00 83 1013.1
20260509093339 54 138 0.0 0.0 0.00 0.00 0.00 82 1012.9
20260509092837 55 139 0.0 0.0 0.00 0.00 0.00 82 1013.0
20260509092335 55 132 1.0 1.0 0.00 0.00 0.00 82 1012.8
20260509091832 55 156 0.0 0.0 0.00 0.00 0.00 81 1012.7
20260509091329 55 189 0.0 0.0 0.00 0.00 0.00 81 1012.8
20260509090826 55 149 1.0 2.0 0.00 0.00 0.00 81 1012.9
20260509090323 55 233 0.0 0.0 0.00 0.00 0.00 80 1012.9
20260509085821 55 213 0.0 1.0 0.00 0.00 0.00 80 1013.1
20260509085318 55 142 0.0 0.0 0.00 0.00 0.00 80 1013.0
20260509084814 55 148 1.0 1.0 0.00 0.00 0.00 80 1013.0
20260509084311 55 208 0.0 0.0 0.00 0.00 0.00 80 1013.3
20260509083809 55 218 1.0 1.0 0.00 0.00 0.00 79 1013.3
20260509083306 55 179 0.0 0.0 0.00 0.00 0.00 79 1013.2
20260509082802 56 244 1.0 1.0 0.00 0.00 0.00 78 1013.1
20260509082259 56 302 1.0 2.0 0.00 0.00 0.00 78 1013.2
20260509081756 56 226 0.0 0.0 0.00 0.00 0.00 78 1013.1